User: anonymous   Login
Location: Unspecified
(0.0000°N, 0.0000°E)
Time: 02:40:46
(UTC+00:00)
Language:

NOAA 6 - Orbit

View from above orbital plane
View from above orbital plane
View from above satellite
View from above satellite

Ground track
Ground track

The orbit data is extracted from the following two-line orbital elements,

1 11416U 79057A   17207.90264130 +.00000002 +00000-0 +16677-4 0  9996
2 11416 098.5809 195.4600 0011276 126.8825 233.3394 14.33426768985551
Epoch (UTC): 26 July 2017 21:39:48
Eccentricity: 0.0011276
inclination: 98.5809°
perigee height: 772 km
apogee height: 788 km
right ascension of ascending node: 195.4600°
argument of perigee: 126.8825°
revolutions per day: 14.33426768
mean anomaly at epoch: 233.3394°
orbit number at epoch: 98555

The dashed part of the orbit path shows where the satellite is in the earth's shadow,  

DLR